Weather History for Washington, IA

Change the Weather History Date:

Friday, October 12, 2012

  Actual Average Record
Temperature  
Mean Temperature 46 °F -  
Max Temperature 59 °F 64 °F 82 °F (2008)
Min Temperature 33 °F 42 °F 33 °F (2006)
Degree Days  
Heating Degree Days 19    
Moisture  
Dew Point 25 °F    
Average Humidity 45    
Maximum Humidity 87    
Minimum Humidity 21    
Precipitation  
Precipitation 0.09 in - - ()
Sea Level Pressure  
Sea Level Pressure 30.33 in    
Wind  
Wind Speed 10 mph (East)    
Max Wind Speed 16 mph    
Max Gust Speed 20 mph    
Visibility 10 miles    
Events Rain    
Averages and records for this station are not official NWS values.
T = Trace of Precipitation, MM = Missing Value Source: NWS Daily Summary

Daily Weather History Graph

Daily Weather History Graph

Search for Another Location

Airport:

Trip Planner

Search our weather history database for the weather conditions in past years. The results will help you decide how hot, cold, wet, or windy it might be!

Date:

Astronomy

Oct. 12, 2012 Rise Set
Actual Time 7:15 AM CDT 6:29 PM CDT
Civil Twilight 6:47 AM CDT 6:57 PM CDT
Nautical Twilight 6:15 AM CDT 7:29 PM CDT
Astronomical Twilight 5:43 AM CDT 8:01 PM CDT
Moon 3:57 AM CDT (10/12) 4:41 PM CDT (10/12)
Length of Visible Light 12h 09m
Length of Day
11h 14m
Waning Crescent, 10% of the Moon is Illuminated
Oct 12
Waning Crescent
Oct 15
New
Oct 21
First Quarter
Oct 29
Full
Nov 6
Last Quarter

Hourly Weather History & Observations

Time (CDT) Temp. Windchill Dew Point Humidity Pressure Visibility Wind Dir Wind Speed Gust Speed Precip Events Conditions
12:15 AM 48.2 °F - 26.6 °F 43% 30.32 in 10.0 mi NNE 10.4 mph 16.1 mph N/A   Overcast
12:35 AM 48.2 °F - 26.6 °F 43% 30.32 in 10.0 mi North 10.4 mph - N/A   Overcast
12:55 AM 48.2 °F - 26.6 °F 43% 30.33 in 10.0 mi North 9.2 mph - N/A   Overcast
1:15 AM 48.2 °F - 26.6 °F 43% 30.33 in 10.0 mi North 12.7 mph - N/A   Overcast
1:35 AM 46.4 °F 40.7 °F 26.6 °F 46% 30.33 in 10.0 mi North 12.7 mph - N/A   Overcast
1:55 AM 46.4 °F 41.5 °F 26.6 °F 46% 30.34 in 10.0 mi North 10.4 mph - N/A   Overcast
2:15 AM 46.4 °F 41.5 °F 24.8 °F 43% 30.34 in 10.0 mi NNE 10.4 mph - N/A   Overcast
2:35 AM 46.4 °F 41.5 °F 24.8 °F 43% 30.34 in 10.0 mi NNE 10.4 mph - N/A   Mostly Cloudy
3:15 AM 41.0 °F 36.4 °F 24.8 °F 53% 30.35 in 10.0 mi North 6.9 mph - N/A   Clear
3:35 AM 39.2 °F 33.6 °F 24.8 °F 56% 30.35 in 10.0 mi North 8.1 mph - N/A   Clear
3:55 AM 39.2 °F 34.2 °F 24.8 °F 56% 30.35 in 10.0 mi NNE 6.9 mph - N/A   Clear
4:15 AM 39.2 °F 34.2 °F 23.0 °F 52% 30.36 in 10.0 mi NNE 6.9 mph - N/A   Clear
4:35 AM 37.4 °F 32.1 °F 23.0 °F 56% 30.36 in 10.0 mi NNE 6.9 mph - N/A   Clear
4:55 AM 37.4 °F 31.4 °F 24.8 °F 60% 30.36 in 10.0 mi NNE 8.1 mph - N/A   Clear
5:15 AM 37.4 °F 30.8 °F 24.8 °F 60% 30.36 in 10.0 mi NNE 9.2 mph - N/A   Clear
5:55 AM 35.6 °F 29.9 °F 23.0 °F 60% 30.38 in 10.0 mi NE 6.9 mph - N/A   Clear
6:15 AM 35.6 °F 29.2 °F 23.0 °F 60% 30.38 in 10.0 mi NE 8.1 mph - N/A   Clear
6:35 AM 33.8 °F 27.7 °F 23.0 °F 65% 30.39 in 10.0 mi NE 6.9 mph - N/A   Clear
6:55 AM 33.8 °F 27.0 °F 23.0 °F 65% 30.39 in 10.0 mi NE 8.1 mph - N/A   Clear
7:15 AM 33.8 °F 27.0 °F 23.0 °F 65% 30.40 in 10.0 mi NE 8.1 mph - N/A   Clear
7:35 AM 33.8 °F 26.4 °F 23.0 °F 65% 30.41 in 10.0 mi NE 9.2 mph - N/A   Clear
7:55 AM 35.6 °F 29.9 °F 23.0 °F 60% 30.42 in 10.0 mi NE 6.9 mph - N/A   Clear
8:15 AM 37.4 °F 32.8 °F 24.8 °F 60% 30.43 in 10.0 mi ENE 5.8 mph - N/A   Clear
8:35 AM 39.2 °F 33.6 °F 24.8 °F 56% 30.43 in 10.0 mi ENE 8.1 mph - N/A   Clear
9:15 AM 42.8 °F 36.2 °F 24.8 °F 49% 30.44 in 10.0 mi East 12.7 mph - N/A   Clear
9:35 AM 42.8 °F 35.8 °F 24.8 °F 49% 30.44 in 7.0 mi East 13.8 mph - N/A   Clear
9:55 AM 44.6 °F 38.4 °F 24.8 °F 46% 30.44 in 10.0 mi ESE 12.7 mph 17.3 mph N/A   Clear
10:15 AM 46.4 °F 40.4 °F 24.8 °F 43% 30.44 in 10.0 mi East 13.8 mph - N/A   Clear
10:35 AM 46.4 °F 41.5 °F 23.0 °F 40% 30.43 in 10.0 mi East 10.4 mph - N/A   Clear
11:15 AM 50.0 °F - 21.2 °F 32% 30.43 in 10.0 mi East 13.8 mph - N/A   Clear
11:35 AM 50.0 °F - 21.2 °F 32% 30.42 in 10.0 mi East 12.7 mph 19.6 mph N/A   Clear
11:55 AM 51.8 °F - 21.2 °F 30% 30.42 in 10.0 mi ESE 12.7 mph 16.1 mph N/A   Clear
12:15 PM 51.8 °F - 19.4 °F 28% 30.41 in 10.0 mi East 16.1 mph - N/A   Clear
12:35 PM 53.6 °F - 19.4 °F 26% 30.40 in 10.0 mi ESE 11.5 mph - N/A   Clear
12:55 PM 53.6 °F - 19.4 °F 26% 30.39 in 10.0 mi East 9.2 mph 18.4 mph N/A   Clear
1:35 PM 55.4 °F - 17.6 °F 23% 30.37 in 10.0 mi SE 11.5 mph 16.1 mph N/A   Clear
1:55 PM 55.4 °F - 17.6 °F 23% 30.36 in 10.0 mi East 11.5 mph 17.3 mph N/A   Clear
2:15 PM 57.2 °F - 17.6 °F 21% 30.35 in 10.0 mi ESE 12.7 mph - N/A   Clear
2:35 PM 57.2 °F - 17.6 °F 21% 30.33 in 10.0 mi SE 8.1 mph 16.1 mph N/A   Clear
2:55 PM 57.2 °F - 17.6 °F 21% 30.32 in 10.0 mi SE 10.4 mph 17.3 mph N/A   Clear
3:15 PM 57.2 °F - 17.6 °F 21% 30.32 in 10.0 mi ESE 10.4 mph 16.1 mph N/A   Clear
3:35 PM 57.2 °F - 19.4 °F 23% 30.30 in 10.0 mi SE 11.5 mph 17.3 mph N/A   Clear
3:55 PM 59.0 °F - 19.4 °F 22% 30.29 in 10.0 mi SE 11.5 mph - N/A   Clear
4:15 PM 59.0 °F - 21.2 °F 23% 30.29 in 10.0 mi SE 11.5 mph - N/A   Clear
4:35 PM 59.0 °F - 21.2 °F 23% 30.28 in 10.0 mi SE 11.5 mph - N/A   Clear
5:15 PM 57.2 °F - 24.8 °F 29% 30.27 in 10.0 mi SE 9.2 mph 16.1 mph N/A   Clear
5:55 PM 55.4 °F - 26.6 °F 33% 30.26 in 10.0 mi ESE 9.2 mph - N/A   Clear
6:15 PM 53.6 °F - 26.6 °F 35% 30.24 in 10.0 mi ESE 8.1 mph - N/A   Clear
6:35 PM 51.8 °F - 26.6 °F 38% 30.24 in 10.0 mi ESE 8.1 mph - N/A   Clear
6:55 PM 48.2 °F - 28.4 °F 46% 30.23 in 10.0 mi East 9.2 mph - N/A   Clear
7:15 PM 48.2 °F - 28.4 °F 46% 30.22 in 10.0 mi ESE 8.1 mph - N/A   Clear
7:35 PM 48.2 °F - 28.4 °F 46% 30.22 in 10.0 mi ESE 6.9 mph - N/A   Clear
7:55 PM 48.2 °F - 28.4 °F 46% 30.21 in 10.0 mi ESE 6.9 mph - N/A   Clear
8:15 PM 48.2 °F - 30.2 °F 50% 30.21 in 10.0 mi SE 6.9 mph - N/A   Clear
8:35 PM 48.2 °F - 30.2 °F 50% 30.20 in 10.0 mi ESE 9.2 mph - N/A   Clear
9:15 PM 51.8 °F - 32.0 °F 47% 30.21 in 10.0 mi SE 10.4 mph - N/A   Scattered Clouds
9:35 PM 53.6 °F - 33.8 °F 47% 30.20 in 10.0 mi SE 8.1 mph - N/A   Overcast
9:55 PM 53.6 °F - 33.8 °F 47% 30.21 in 10.0 mi SSE 10.4 mph - N/A Rain Light Rain
10:15 PM 48.2 °F - 39.2 °F 71% 30.18 in 10.0 mi SSE 11.5 mph - 0.02 in Rain Rain
10:55 PM 48.2 °F - 41.0 °F 76% 30.19 in 10.0 mi ESE 4.6 mph - 0.06 in Rain Light Rain
11:35 PM 48.2 °F - 42.8 °F 82% 30.16 in 10.0 mi ESE 8.1 mph - 0.01 in Rain Light Rain
11:55 PM 48.2 °F - 44.6 °F 87% 30.15 in 10.0 mi SE 11.5 mph - 0.03 in Rain Light Rain